Nassau, Bahamas

7:03 PM EDT on July 22, 2017 (GMT -0400)
Nassau International

Weather History for MYNN - January, 2014

Change the Weather History Date:

Thursday, January 30, 2014

  Actual Average Record
Temperature  
Mean Temperature 77 °F -  
Max Temperature 83 °F 78 °F 84 °F (2009)
Min Temperature 71 °F 62 °F 53 °F (2011)
Cooling Degree Days 12    
Growing Degree Days 27 (Base 50)    
Moisture  
Dew Point 73 °F    
Average Humidity 88    
Maximum Humidity 100    
Minimum Humidity 72    
Precipitation  
Precipitation 0.00 in 0.05 in - ()
Sea Level Pressure  
Sea Level Pressure 30.07 in    
Wind  
Wind Speed 4 mph ()    
Max Wind Speed 14 mph    
Max Gust Speed -    
Visibility 6.6 miles    
Events      
Averages and records for this station are not official NWS values.
T = Trace of Precipitation, MM = Missing Value Source: Averaged Metar Reports

Daily Weather History Graph

Daily Weather History Graph

Search for Another Location

Airport or City:

Trip Planner

Search our weather history database for the weather conditions in past years. The results will help you decide how hot, cold, wet, or windy it might be!

Date:

Astronomy

Jan. 30, 2014 Rise Set
Actual Time 6:53 AM EST 5:53 PM EST
Civil Twilight 6:29 AM EST 6:17 PM EST
Nautical Twilight 6:01 AM EST 6:44 PM EST
Astronomical Twilight 5:34 AM EST 7:11 PM EST
Moon 6:21 AM EST (1/30) 5:56 PM EST (1/30)
Length of Visible Light 11h 47m
Length of Day
10h 59m
Waning Crescent, 0% of the Moon is Illuminated
Jan 30
Waning Crescent
Jan 30
New
Feb 6
First Quarter
Feb 14
Full
Feb 22
Last Quarter

Hourly Weather History & Observations

Time (EST) Temp. Heat Index Dew Point Humidity Pressure Visibility Wind Dir Wind Speed Gust Speed Precip Events Conditions
12:00 AM 73.4 °F - 69.8 °F 88% 30.04 in 6.2 mi Calm Calm - N/A   Partly Cloudy
1:00 AM 73 °F - 73 °F 100% 30.04 in 7 mi Calm Calm - -   Clear
1:00 AM 73.4 °F - 73.4 °F 100% 30.04 in - Calm Calm - N/A   Clear
3:00 AM 71.6 °F - 69.8 °F 94% 30.03 in 6.2 mi Calm Calm - N/A   Partly Cloudy
4:00 AM 72 °F - 72 °F 99% 30.03 in 7 mi Calm Calm - -   Scattered Clouds
4:00 AM 71.6 °F - 71.6 °F 100% 30.02 in 6.2 mi Calm Calm - N/A   Partly Cloudy
5:00 AM 71.6 °F - 69.8 °F 94% 30.03 in 6.2 mi Calm Calm - N/A   Partly Cloudy
6:00 AM 71.6 °F - 69.8 °F 94% 30.05 in 6.2 mi SSE 3.5 mph - N/A   Partly Cloudy
7:00 AM 73.4 °F - 73.4 °F 100% 30.06 in 6.2 mi SSE 3.5 mph - N/A   Partly Cloudy
8:00 AM 73.4 °F - 71.6 °F 94% 30.10 in 6.2 mi South 4.6 mph - N/A   Partly Cloudy
9:00 AM 77.0 °F - 71.6 °F 83% 30.10 in 6.2 mi South 6.9 mph - N/A   Partly Cloudy
10:00 AM 80 °F - 76 °F 82% 30.12 in 8 mi South 11.5 mph - -   Scattered Clouds
10:00 AM 78.8 °F - 75.2 °F 89% 30.12 in 6.2 mi South 11.5 mph - N/A   Partly Cloudy
11:00 AM 80.6 °F 84.6 °F 71.6 °F 74% 30.13 in 6.2 mi South 11.5 mph - N/A   Partly Cloudy
12:00 PM 80.6 °F 84.6 °F 71.6 °F 74% 30.11 in 6.2 mi South 11.5 mph - N/A   Scattered Clouds
1:00 PM 82 °F - 74 °F 72% 30.09 in 8 mi South 13.8 mph - -   Partly Cloudy
1:00 PM 82.4 °F 89.5 °F 75.2 °F 79% 30.09 in 6.2 mi South 13.8 mph - N/A   Scattered Clouds
2:00 PM 80.6 °F 84.6 °F 71.6 °F 74% 30.06 in 6.2 mi South 13.8 mph - N/A   Scattered Clouds
3:00 PM 80.6 °F 84.6 °F 71.6 °F 74% 30.03 in 6.2 mi SSE 11.5 mph - N/A   Scattered Clouds
4:00 PM 81 °F - 75 °F 78% 30.04 in 8 mi SSE 11.5 mph - -   Scattered Clouds
4:00 PM 80.6 °F 86.2 °F 75.2 °F 84% 30.03 in 6.2 mi SSE 11.5 mph - N/A   Partly Cloudy
5:00 PM 80.6 °F 84.6 °F 71.6 °F 74% 30.04 in 6.2 mi SSE 11.5 mph - N/A   Partly Cloudy
6:00 PM 77.0 °F - 71.6 °F 83% 30.06 in 6.2 mi SSE 4.6 mph - N/A   Partly Cloudy
7:00 PM 77 °F - 74 °F 90% 30.06 in 8 mi SSE 2.3 mph - -  
7:00 PM 77.0 °F - 75.2 °F 94% 30.06 in - SSE 2.3 mph - N/A   Clear
8:00 PM 75.2 °F - 71.6 °F 89% 30.06 in - SE 3.5 mph - N/A   Clear
9:00 PM 75.2 °F - 71.6 °F 89% 30.07 in - SE 3.5 mph - N/A   Clear
10:00 PM 75 °F - 74 °F 98% 30.09 in 8 mi SE 3.5 mph - -  
10:00 PM 75.2 °F - 75.2 °F 100% 30.08 in - SE 3.5 mph - N/A   Clear
11:00 PM 75.2 °F - 71.6 °F 89% 30.08 in - Variable 1.2 mph - N/A   Clear